Hourly Data Report for June 18, 2012

All times are specified in Local Standard Time (LST). Add 1 hour to adjust for Daylight Saving Time where and when it is observed.

MONCTON INTL A
NEW BRUNSWICK

46°06'44.000" N
64°40'43.000" W
70.70 m
8103201
71705
YQM

Download Data

Hourly Data (June 2012)
Hourly Data Report for June 18, 2012
Temp Definition
°C
Dew Point Temp Definition
°C
Rel Hum Definition
%
Wind Dir Definition
10's deg

Wind Spd Definition
km/h
Visibility Definition
km
Stn Press Definition
kPa
Hmdx Definition


Wind Chill Definition


Weather Definition


TIME
00:00 Legend Double Dagger 10.6 7.5 81 18 11 10.0 101.32     LegendNANA
01:00 Legend Double Dagger 9.7 7.3 85 20 9 10.0 101.32     LegendNANA
02:00 Legend Double Dagger 8.7 7.8 94 19 10 10.0 101.33     Mainly Clear
03:00 Legend Double Dagger 8.9 7.4 90 20 13 10.0 101.30     LegendNANA
04:00 Legend Double Dagger 8.1 7.4 95 19 13 10.0 101.32     LegendNANA
05:00 Legend Double Dagger 8.2 7.5 95 19 9 10.0 101.35     Mainly Clear
06:00 Legend Double Dagger 9.6 7.7 88 21 10 10.0 101.37     LegendNANA
07:00 Legend Double Dagger 11.6 8.3 80 23 18 10.0 101.41     LegendNANA
08:00 Legend Double Dagger 14.2 8.9 70 24 16 10.0 101.36     Mainly Clear
09:00 Legend Double Dagger 15.4 8.7 64 25 10 10.0 101.34     LegendNANA
10:00 Legend Double Dagger 17.9 10.4 61 22 13 10.0 101.32     LegendNANA
11:00 Legend Double Dagger 18.6 9.8 56   0 10.0 101.28     Mainly Clear
12:00 Legend Double Dagger 20.7 10.0 50 20 11 10.0 101.25     LegendNANA
13:00 Legend Double Dagger 22.0 11.0 49 16 14 10.0 101.22     LegendNANA
14:00 Legend Double Dagger 21.8 9.8 46 15 6 10.0 101.19     Mostly Cloudy
15:00 Legend Double Dagger 22.4 10.1 45 15 13 10.0 101.17     LegendNANA
16:00 Legend Double Dagger 22.4 9.4 43 13 14 10.0 101.14     LegendNANA
17:00 Legend Double Dagger 22.1 8.4 41 14 16 10.0 101.12     Mostly Cloudy
18:00 Legend Double Dagger 20.8 9.5 48 17 18 10.0 101.11     LegendNANA
19:00 Legend Double Dagger 19.8 8.6 48 16 15 10.0 101.11     LegendNANA
20:00 Legend Double Dagger 17.5 9.2 58 16 12 10.0 101.12     Mainly Clear
21:00 Legend Double Dagger 15.6 8.7 63 15 9 10.0 101.13     LegendNANA
22:00 Legend Double Dagger 13.0 8.5 74 16 9 10.0 101.13     LegendNANA
23:00 Legend Double Dagger 11.8 8.5 80 16 7 10.0 101.15     Clear

Notes on Data Quality.

Legend

  • E = Estimated
  • M = Missing
  • NA = Not Available
  • ‡ = Partner data that is not subject to review by the National Climate Archives
Date modified: